TimeEDT,TemperatureF,Dew PointF,Humidity,Sea Level PressureIn,VisibilityMPH,Wind Direction,Wind SpeedMPH,Gust SpeedMPH,PrecipitationIn,Events,Conditions,WindDirDegrees,DateUTC
12:15 AM,66.6,58.3,75,29.94,10.0,WNW,10.4,-,N/A,,Mostly Cloudy,290,2013-05-24 04:15:00
12:35 AM,64.6,57.9,79,29.94,10.0,WNW,6.9,-,N/A,,Scattered Clouds,300,2013-05-24 04:35:00
12:55 AM,64.8,54.9,70,29.94,10.0,WNW,5.8,-,N/A,,Clear,300,2013-05-24 04:55:00
1:15 AM,64.0,53.4,68,29.94,10.0,NNW,4.6,-,N/A,,Clear,340,2013-05-24 05:15:00
1:35 AM,63.3,56.1,77,29.93,10.0,ENE,3.5,-,N/A,,Clear,60,2013-05-24 05:35:00
1:55 AM,63.3,56.5,78,29.93,10.0,Calm,Calm,-,N/A,,Clear,0,2013-05-24 05:55:00
2:15 AM,59.9,55.6,86,29.93,10.0,North,4.6,-,N/A,,Clear,350,2013-05-24 06:15:00
2:35 AM,60.3,55.9,86,29.93,10.0,Calm,Calm,-,N/A,,Clear,0,2013-05-24 06:35:00
2:55 AM,61.0,55.6,82,29.94,10.0,WNW,5.8,-,N/A,,Clear,290,2013-05-24 06:55:00
3:15 AM,59.7,55.4,86,29.93,10.0,Calm,Calm,-,N/A,,Clear,0,2013-05-24 07:15:00
3:35 AM,57.6,55.4,92,29.93,10.0,Calm,Calm,-,N/A,,Clear,0,2013-05-24 07:35:00
3:55 AM,57.7,54.7,90,29.93,10.0,Calm,Calm,-,N/A,,Clear,0,2013-05-24 07:55:00
4:15 AM,55.8,54.9,97,29.93,10.0,Calm,Calm,-,N/A,,Clear,0,2013-05-24 08:15:00
4:35 AM,55.4,54.5,97,29.93,10.0,Calm,Calm,-,N/A,,Clear,0,2013-05-24 08:35:00
4:55 AM,54.9,54.1,97,29.93,10.0,Calm,Calm,-,N/A,,Clear,0,2013-05-24 08:55:00
5:15 AM,55.8,54.0,94,29.94,10.0,Calm,Calm,-,N/A,,Clear,0,2013-05-24 09:15:00
5:35 AM,54.0,53.2,97,29.94,10.0,Calm,Calm,-,N/A,,Clear,0,2013-05-24 09:35:00
5:55 AM,54.5,53.4,96,29.94,10.0,Calm,Calm,-,N/A,,Clear,0,2013-05-24 09:55:00
6:15 AM,54.7,53.6,96,29.95,10.0,Calm,Calm,-,N/A,,Clear,0,2013-05-24 10:15:00
6:35 AM,53.6,52.9,97,29.95,7.0,Calm,Calm,-,N/A,,Clear,0,2013-05-24 10:35:00
6:55 AM,54.7,52.7,93,29.97,10.0,Calm,Calm,-,N/A,,Clear,0,2013-05-24 10:55:00
7:15 AM,55.4,53.4,93,29.97,10.0,Calm,Calm,-,N/A,,Clear,0,2013-05-24 11:15:00
7:35 AM,57.6,54.0,88,29.98,10.0,Calm,Calm,-,N/A,,Clear,0,2013-05-24 11:35:00
7:55 AM,59.7,54.0,81,29.99,10.0,Calm,Calm,-,N/A,,Clear,0,2013-05-24 11:55:00
8:15 AM,61.0,54.7,80,30.00,10.0,Calm,Calm,-,N/A,,Clear,0,2013-05-24 12:15:00
8:35 AM,64.0,53.6,69,30.00,10.0,West,3.5,-,N/A,,Clear,280,2013-05-24 12:35:00
8:55 AM,64.9,54.5,69,30.01,10.0,NW,11.5,16.1,N/A,,Clear,320,2013-05-24 12:55:00
9:15 AM,66.6,52.0,59,30.03,10.0,North,10.4,18.4,N/A,,Scattered Clouds,350,2013-05-24 13:15:00
9:35 AM,67.5,50.4,54,30.04,10.0,NNW,12.7,21.9,N/A,,Clear,340,2013-05-24 13:35:00
9:55 AM,67.8,48.9,51,30.06,10.0,North,9.2,16.1,N/A,,Clear,360,2013-05-24 13:55:00
10:15 AM,66.4,47.1,50,30.07,10.0,NNE,13.8,20.7,N/A,,Scattered Clouds,20,2013-05-24 14:15:00
10:35 AM,66.9,47.8,50,30.08,10.0,NNE,15.0,21.9,N/A,,Scattered Clouds,20,2013-05-24 14:35:00
10:55 AM,66.7,45.3,46,30.09,10.0,NNE,13.8,26.5,N/A,,Scattered Clouds,20,2013-05-24 14:55:00
11:15 AM,63.9,43.5,48,30.11,10.0,NNE,15.0,29.9,N/A,,Mostly Cloudy,20,2013-05-24 15:15:00
11:35 AM,65.3,43.2,45,30.12,10.0,North,18.4,28.8,N/A,,Scattered Clouds,10,2013-05-24 15:35:00
11:55 AM,65.7,43.5,45,30.13,10.0,North,15.0,26.5,N/A,,Clear,10,2013-05-24 15:55:00
12:15 PM,66.4,43.5,44,30.13,10.0,North,12.7,21.9,N/A,,Clear,360,2013-05-24 16:15:00
12:35 PM,65.8,42.3,42,30.13,10.0,North,17.3,28.8,N/A,,Clear,360,2013-05-24 16:35:00
12:55 PM,66.6,42.4,42,30.13,10.0,North,13.8,23.0,N/A,,Clear,350,2013-05-24 16:55:00
1:15 PM,67.1,40.8,38,30.13,10.0,North,16.1,25.3,N/A,,Clear,360,2013-05-24 17:15:00
1:35 PM,68.0,40.1,36,30.13,10.0,North,18.4,29.9,N/A,,Clear,360,2013-05-24 17:35:00
1:55 PM,68.5,38.8,34,30.13,10.0,North,10.4,23.0,N/A,,Clear,350,2013-05-24 17:55:00
2:15 PM,69.8,39.2,33,30.13,10.0,North,18.4,24.2,N/A,,Clear,10,2013-05-24 18:15:00
2:35 PM,69.6,36.7,30,30.13,10.0,North,13.8,23.0,N/A,,Clear,10,2013-05-24 18:35:00
2:55 PM,70.3,34.5,27,30.12,10.0,North,11.5,24.2,N/A,,Clear,360,2013-05-24 18:55:00
3:15 PM,70.2,33.4,26,30.12,10.0,North,17.3,24.2,N/A,,Clear,360,2013-05-24 19:15:00
3:35 PM,70.9,33.6,25,30.13,10.0,North,13.8,26.5,N/A,,Clear,360,2013-05-24 19:35:00
3:55 PM,70.9,31.8,24,30.13,10.0,North,16.1,24.2,N/A,,Clear,10,2013-05-24 19:55:00
4:15 PM,71.6,33.8,25,30.13,10.0,North,12.7,19.6,N/A,,Clear,360,2013-05-24 20:15:00
4:35 PM,70.5,32.4,24,30.13,10.0,North,13.8,26.5,N/A,,Clear,360,2013-05-24 20:35:00
4:55 PM,70.5,32.5,25,30.13,10.0,North,16.1,25.3,N/A,,Clear,10,2013-05-24 20:55:00
5:15 PM,70.5,33.6,26,30.13,10.0,North,12.7,23.0,N/A,,Clear,360,2013-05-24 21:15:00
5:35 PM,70.7,35.6,28,30.13,10.0,North,11.5,17.3,N/A,,Clear,360,2013-05-24 21:35:00
5:55 PM,70.2,35.6,28,30.14,10.0,NNW,9.2,19.6,N/A,,Clear,340,2013-05-24 21:55:00
6:15 PM,70.0,35.4,28,30.14,10.0,North,10.4,20.7,N/A,,Clear,10,2013-05-24 22:15:00
6:35 PM,69.6,34.9,28,30.14,10.0,North,11.5,17.3,N/A,,Clear,360,2013-05-24 22:35:00
6:55 PM,68.9,34.7,28,30.14,10.0,North,8.1,16.1,N/A,,Clear,10,2013-05-24 22:55:00
7:15 PM,68.4,36.0,30,30.15,10.0,North,9.2,-,N/A,,Clear,360,2013-05-24 23:15:00
7:35 PM,67.3,34.3,30,30.16,10.0,North,4.6,-,N/A,,Clear,10,2013-05-24 23:35:00
7:55 PM,66.2,34.0,30,30.16,10.0,North,10.4,-,N/A,,Clear,10,2013-05-24 23:55:00
8:15 PM,64.9,34.9,33,30.17,10.0,NNE,9.2,-,N/A,,Clear,20,2013-05-25 00:15:00
8:35 PM,63.7,35.4,35,30.17,10.0,NNE,8.1,-,N/A,,Clear,20,2013-05-25 00:35:00
8:55 PM,62.2,36.1,38,30.18,10.0,North,6.9,-,N/A,,Clear,10,2013-05-25 00:55:00
9:15 PM,61.9,36.0,38,30.19,10.0,North,6.9,-,N/A,,Clear,350,2013-05-25 01:15:00
9:35 PM,60.4,36.9,42,30.19,10.0,Calm,Calm,-,N/A,,Clear,0,2013-05-25 01:35:00
9:55 PM,56.8,38.8,51,30.21,10.0,Calm,Calm,-,N/A,,Clear,0,2013-05-25 01:55:00
10:15 PM,60.1,36.1,41,30.21,10.0,North,3.5,-,N/A,,Clear,360,2013-05-25 02:15:00
10:35 PM,60.4,35.2,39,30.22,10.0,NNE,6.9,-,N/A,,Clear,30,2013-05-25 02:35:00
10:55 PM,60.8,34.2,37,30.22,10.0,North,9.2,-,N/A,,Clear,360,2013-05-25 02:55:00
11:15 PM,60.6,33.6,36,30.22,10.0,North,5.8,-,N/A,,Clear,350,2013-05-25 03:15:00
11:35 PM,57.6,36.7,46,30.24,10.0,Calm,Calm,-,N/A,,Clear,0,2013-05-25 03:35:00
11:55 PM,54.9,37.6,52,30.24,10.0,Calm,Calm,-,N/A,,Clear,0,2013-05-25 03:55:00